Weather History for Grove, OK

Change the Weather History Date:

Monday, September 9, 2013

  Actual Average (KSLG) Record (KSLG)
Temperature  
Mean Temperature 82 °F -  
Max Temperature 96 °F 81 °F 96 °F (2013)
Min Temperature 68 °F 60 °F 48 °F (2011)
Cooling Degree Days 17    
Growing Degree Days 32 (Base 50)    
Moisture  
Dew Point 65 °F    
Average Humidity 63    
Maximum Humidity 100    
Minimum Humidity 30    
Precipitation  
Precipitation 0.00 in - - ()
Sea Level Pressure  
Sea Level Pressure 29.98 in    
Wind  
Wind Speed 2 mph (SSW)    
Max Wind Speed 14 mph    
Max Gust Speed 20 mph    
Visibility 10 miles    
Events      
Averages and records for this station are not official NWS values.
T = Trace of Precipitation, MM = Missing Value Source: NWS Daily Summary

Daily Weather History Graph

Daily Weather History Graph

Search for Another Location

Airport:

Trip Planner

Search our weather history database for the weather conditions in past years. The results will help you decide how hot, cold, wet, or windy it might be!

Date:

Astronomy

Sep. 09, 2013 Rise Set
Actual Time 6:56 AM CDT 7:34 PM CDT
Civil Twilight 6:30 AM CDT 8:00 PM CDT
Nautical Twilight 5:59 AM CDT 8:31 PM CDT
Astronomical Twilight 5:28 AM CDT 9:03 PM CDT
Moon 11:10 AM CDT (9/9) 10:00 PM CDT (9/9)
Length of Visible Light 13h 30m
Length of Day
12h 38m
Waxing Crescent, 19% of the Moon is Illuminated
Sep 9
Waxing Crescent
Sep 12
First Quarter
Sep 19
Full
Sep 26
Last Quarter
Oct 4
New

Hourly Weather History & Observations

Time (CDT) Temp. Heat Index Dew Point Humidity Pressure Visibility Wind Dir Wind Speed Gust Speed Precip Events Conditions
12:15 AM 71.6 °F - 69.8 °F 94% 29.95 in 10.0 mi Calm Calm - N/A   Clear
12:35 AM 71.6 °F - 71.6 °F 100% 29.94 in 10.0 mi Calm Calm - N/A   Clear
12:55 AM 73.4 °F - 73.4 °F 100% 29.94 in 10.0 mi Calm Calm - N/A   Clear
1:15 AM 71.6 °F - 71.6 °F 100% 29.94 in 7.0 mi Calm Calm - N/A   Clear
1:35 AM 71.6 °F - 71.6 °F 100% 29.94 in 7.0 mi Calm Calm - N/A   Clear
1:55 AM 71.6 °F - 71.6 °F 100% 29.94 in 5.0 mi Calm Calm - N/A   Clear
2:15 AM 71.6 °F - 71.6 °F 100% 29.95 in 7.0 mi Calm Calm - N/A   Clear
2:35 AM 71.6 °F - 71.6 °F 100% 29.95 in 7.0 mi Calm Calm - N/A   Clear
2:55 AM 71.6 °F - 71.6 °F 100% 29.95 in 10.0 mi Calm Calm - N/A   Clear
3:15 AM 71.6 °F - 71.6 °F 100% 29.95 in 10.0 mi Calm Calm - N/A   Clear
3:35 AM 71.6 °F - 71.6 °F 100% 29.95 in 10.0 mi Calm Calm - N/A   Clear
3:55 AM 73.4 °F - 69.8 °F 88% 29.96 in 10.0 mi Calm Calm - N/A   Clear
4:15 AM 71.6 °F - 66.2 °F 83% 29.96 in 10.0 mi Calm Calm - N/A   Clear
4:35 AM 71.6 °F - 64.4 °F 78% 29.96 in 10.0 mi Calm Calm - N/A   Clear
4:55 AM 69.8 °F - 66.2 °F 88% 29.96 in 10.0 mi Calm Calm - N/A   Clear
5:15 AM 69.8 °F - 66.2 °F 88% 29.96 in 10.0 mi Calm Calm - N/A   Clear
5:35 AM 69.8 °F - 64.4 °F 83% 29.97 in 10.0 mi Calm Calm - N/A   Clear
5:55 AM 69.8 °F - 68.0 °F 94% 29.96 in 10.0 mi Calm Calm - N/A   Clear
6:15 AM 68.0 °F - 68.0 °F 100% 29.97 in 10.0 mi Calm Calm - N/A   Clear
6:35 AM 68.0 °F - 68.0 °F 100% 29.98 in 10.0 mi Calm Calm - N/A   Clear
6:55 AM 68.0 °F - 68.0 °F 100% 29.98 in 7.0 mi Calm Calm - N/A   Clear
7:15 AM 68.0 °F - 68.0 °F 100% 29.99 in 7.0 mi Calm Calm - N/A   Clear
7:35 AM 68.0 °F - 68.0 °F 100% 30.00 in 7.0 mi Calm Calm - N/A   Clear
7:55 AM 69.8 °F - 69.8 °F 100% 30.00 in 7.0 mi Calm Calm - N/A   Clear
8:15 AM 71.6 °F - 69.8 °F 94% 30.00 in 10.0 mi Calm Calm - N/A   Clear
8:35 AM 73.4 °F - 68.0 °F 83% 30.00 in 10.0 mi Calm Calm - N/A   Clear
8:55 AM - - - N/A% - - North - - N/A   Unknown
9:15 AM - - - N/A% - - North - - N/A   Unknown
9:35 AM 82.4 °F 83.9 °F 64.4 °F 54% 30.02 in 10.0 mi SW 3.5 mph - N/A   Clear
9:55 AM 86.0 °F 87.3 °F 64.4 °F 48% 30.03 in 10.0 mi SSW 4.6 mph - N/A   Clear
10:15 AM 86.0 °F 87.3 °F 64.4 °F 48% 30.03 in 10.0 mi SW 6.9 mph - N/A   Clear
10:35 AM 87.8 °F 89.4 °F 64.4 °F 46% 30.03 in 10.0 mi SSW 4.6 mph - N/A   Clear
10:55 AM 87.8 °F 89.4 °F 64.4 °F 46% 30.03 in 10.0 mi WSW 5.8 mph - N/A   Clear
11:15 AM 87.8 °F 89.4 °F 64.4 °F 46% 30.03 in 10.0 mi WSW 4.6 mph - N/A   Clear
11:35 AM 89.6 °F 91.1 °F 64.4 °F 43% 30.03 in 10.0 mi WSW 5.8 mph - N/A   Clear
11:55 AM 91.4 °F 93.2 °F 64.4 °F 41% 30.03 in 10.0 mi SSW 4.6 mph - N/A   Clear
12:15 PM 91.4 °F 93.2 °F 64.4 °F 41% 30.03 in 10.0 mi SW 5.8 mph - N/A   Clear
12:35 PM 91.4 °F 93.2 °F 64.4 °F 41% 30.03 in 10.0 mi WSW 5.8 mph - N/A   Clear
12:55 PM 93.2 °F 94.9 °F 64.4 °F 38% 30.02 in 10.0 mi SW 5.8 mph - N/A   Clear
1:15 PM 95.0 °F 97.0 °F 64.4 °F 36% 30.02 in 10.0 mi SW 8.1 mph - N/A   Clear
1:35 PM 95.0 °F 96.0 °F 62.6 °F 34% 30.01 in 10.0 mi SSW 8.1 mph - N/A   Clear
1:55 PM 95.0 °F 96.0 °F 62.6 °F 34% 30.01 in 10.0 mi SSW 6.9 mph - N/A   Clear
2:15 PM 96.8 °F 99.0 °F 64.4 °F 34% 30.00 in 10.0 mi South 9.2 mph - N/A   Scattered Clouds
2:35 PM 95.0 °F 96.0 °F 62.6 °F 34% 30.00 in 10.0 mi SSW 12.7 mph 18.4 mph N/A   Clear
2:55 PM 96.8 °F 98.0 °F 62.6 °F 32% 29.99 in 10.0 mi SSW 13.8 mph 17.3 mph N/A   Scattered Clouds
3:15 PM 96.8 °F 98.0 °F 62.6 °F 32% 29.98 in 10.0 mi South 9.2 mph - N/A   Clear
3:35 PM 96.8 °F 97.1 °F 60.8 °F 30% 29.97 in 10.0 mi SSW 12.7 mph 18.4 mph N/A   Clear
3:55 PM 95.0 °F 95.2 °F 60.8 °F 32% 29.96 in 10.0 mi South 11.5 mph 16.1 mph N/A   Scattered Clouds
4:15 PM 96.8 °F 97.1 °F 60.8 °F 30% 29.96 in 10.0 mi SSW 11.5 mph 19.6 mph N/A   Scattered Clouds
4:35 PM 96.8 °F 97.1 °F 60.8 °F 30% 29.95 in 10.0 mi South 9.2 mph - N/A   Clear
4:55 PM 96.8 °F 97.1 °F 60.8 °F 30% 29.95 in 10.0 mi SSE 10.4 mph 17.3 mph N/A   Clear
5:15 PM 95.0 °F 95.2 °F 60.8 °F 32% 29.95 in 10.0 mi SSW 9.2 mph - N/A   Clear
5:35 PM 95.0 °F 95.2 °F 60.8 °F 32% 29.95 in 10.0 mi South 9.2 mph - N/A   Clear
5:55 PM 95.0 °F 95.2 °F 60.8 °F 32% 29.95 in 10.0 mi South 8.1 mph - N/A   Clear
6:15 PM 95.0 °F 95.2 °F 60.8 °F 32% 29.95 in 10.0 mi SSW 6.9 mph - N/A   Clear
6:35 PM 91.4 °F 92.1 °F 62.6 °F 38% 29.95 in 10.0 mi South 4.6 mph - N/A   Clear
6:55 PM 89.6 °F 90.1 °F 62.6 °F 40% 29.95 in 10.0 mi South 4.6 mph - N/A   Clear
7:15 PM 87.8 °F 88.5 °F 62.6 °F 43% 29.95 in 10.0 mi South 3.5 mph - N/A   Clear
7:35 PM 86.0 °F 87.3 °F 64.4 °F 48% 29.95 in 10.0 mi Calm Calm - N/A   Clear
7:55 PM 86.0 °F 87.3 °F 64.4 °F 48% 29.95 in 10.0 mi Calm Calm - N/A   Clear
8:15 PM 82.4 °F 83.9 °F 64.4 °F 54% 29.96 in 10.0 mi SE 3.5 mph - N/A   Clear
8:35 PM 80.6 °F 82.3 °F 64.4 °F 58% 29.96 in 10.0 mi SSE 3.5 mph - N/A   Clear
8:55 PM 80.6 °F 82.3 °F 64.4 °F 58% 29.97 in 10.0 mi Calm Calm - N/A   Clear
9:15 PM 80.6 °F 82.3 °F 64.4 °F 58% 29.98 in 10.0 mi South 4.6 mph - N/A   Clear
9:35 PM 80.6 °F 82.3 °F 64.4 °F 58% 29.98 in 10.0 mi South 3.5 mph - N/A   Clear
9:55 PM 80.6 °F 81.8 °F 62.6 °F 54% 29.99 in 10.0 mi South 5.8 mph - N/A   Clear
10:15 PM 80.6 °F 81.8 °F 62.6 °F 54% 29.99 in 10.0 mi South 4.6 mph - N/A   Clear
10:35 PM 80.6 °F 81.8 °F 62.6 °F 54% 29.99 in 10.0 mi South 5.8 mph - N/A   Clear
10:55 PM 78.8 °F - 62.6 °F 57% 30.00 in 10.0 mi SSE 3.5 mph - N/A   Clear
11:15 PM 77.0 °F - 62.6 °F 61% 30.00 in 10.0 mi Calm Calm - N/A   Clear
11:35 PM 77.0 °F - 62.6 °F 61% 30.00 in 10.0 mi Calm Calm - N/A   Clear
11:55 PM 71.6 °F - 64.4 °F 78% 30.01 in 10.0 mi Calm Calm - N/A   Clear